Location: Lake Almanor
(40.2485°N, 121.1442°W)
Time: 11:22:22
(UTC-08:00)

STARLINK-1117 - Pass Details

Date: 04 February 2020
Orbit: 348 x 350 km, 53.0° (Epoch: 18 February)

Event Time Altitude Azimuth Distance (km) Brightness Sun altitude
Rises 18:16:30 0° 294° (WNW) 2,175 7.6 -10.0°
Reaches altitude 10° 18:18:57 10° 273° (W) 1,327 7.0 -10.4°
Maximum altitude 18:20:58 17° 230° (SW) 999 5.9 -10.8°
Drops below altitude 10° 18:22:59 10° 187° (S) 1,322 5.8 -11.2°
Sets 18:25:25 0° 165° (SSE) 2,161 6.6 -11.6°
